Погода в Новом

Россия / Сахалинская область     48°53′07″N   142°56′35″E
В апреле 2022 года жителям России запретили посещать сайт meteo.paraplan.net по решению Генеральной прокуратуры. Аудитория сайта уменьшилась в 10 раз. Владельцы сайта не видят смысла в поддержке погодного сервера в таких условиях. Сайт будет закрыт в октябре.
темп.,
°C
ветер,
м/с
пор.,
м/с
влажн.,
%
обл.,
%
осадки,
мм/ч
давл.,
гПа
погр.,
м
5 октября, ср
ср523:00+5ссз35755 0.0 1004420
02:00+5с457929 0.0 1006377
05:00+4ссз45798 0.0 1007380
08:00+4зсз587397 0.0 1009604
11:00+6сз79454 0.0 10111584
14:00+7зсз7940100 0.0 10112210
17:00+7з694082 0.0 10122333
20:00+4юз586262 0.0 1014709
6 октября, чт
чт623:00+3зюз357826 0.1 1014282
02:00+3з46628 0.0 1013454
05:00+3зюз346596 0.0 1013326
08:00+3зюз3665100 0.0 1013384
11:00+6з68526 0.0 10131472
14:00+7з7943100 0.0 10132158
17:00+7з69395 0.0 10142359
20:00+4зюз697686 0.0 1016443
7 октября, пт
пт723:00+3зюз47751 0.0 1017306
02:00+4з47661 0.0 1018297
05:00+3зюз47671 0.0 1018235
08:00+3зюз47650 0.0 1019245
11:00+7з694648 0.0 10191773
14:00+9з784221 0.0 10171894
17:00+9з58424 0.0 10181696
20:00+6зюз48565 0.0 1020499
8 октября, сб
сб823:00+5юз577489 0.0 1020249
02:00+5з33725 0.0 1020122
05:00+5зюз33685 0.0 1021112
08:00+4з33685 0.0 1022118
11:00+8зсз24539 0.0 1022729
14:00+9вюв1350100 0.0 1022919
17:00+9сз0249100 0.1 1022893
20:00+7зсз346083 0.0 1024161
9 октября, вс
вс923:00+5ссз457255 0.1 1025208
02:00+4с338240 0.0 1026231
05:00+3ссз118173 0.0 1026201
08:00+3зсз11746 0.0 1027133
11:00+6юз02597 0.0 1027371
14:00+8ю345799 0.0 1026859
17:00+10зюз23444 0.0 1026819
20:00+7з335790 0.0 1027121